SQ5DCP-1 Weather Reports


time (UTC)temp
C
wind
direction
speed
KPH
gust
KPH
rain 1hr
cm
rain 24hr
cm
rain mn
cm
humidity
%
barometer
mb
20260831103533 27 254 4.8 17.7 0.00 0.00 0.00 46 1014.3
20260831103031 27 264 1.6 4.8 0.00 0.00 0.00 47 1014.3
20260831102530 27 182 3.2 9.7 0.00 0.00 0.00 46 1014.3
20260831102028 27 285 4.8 12.9 0.00 0.00 0.00 46 1014.4
20260831101526 27 240 6.4 14.5 0.00 0.00 0.00 46 1014.4
20260831101024 27 248 4.8 11.3 0.00 0.00 0.00 45 1014.5
20260831100522 27 256 4.8 12.9 0.00 0.00 0.00 46 1014.5
20260831100020 27 269 4.8 12.9 0.00 0.00 0.00 43 1014.5
20260831095518 27 289 8.0 16.1 0.00 0.00 0.00 46 1014.6
20260831095048 26 275 4.8 11.3 0.00 0.00 0.00 48 1014.6
20260831095016 26 275 4.8 11.3 0.00 0.00 0.00 48 1014.6
20260831094535 26 271 6.4 14.5 0.00 0.00 0.00 46 1014.6
20260831094033 26 273 8.0 16.1 0.00 0.00 0.00 46 1014.7
20260831093532 26 284 6.4 12.9 0.00 0.00 0.00 47 1014.7
20260831093029 26 293 4.8 16.1 0.00 0.00 0.00 46 1014.7
20260831092527 26 230 6.4 17.7 0.00 0.00 0.00 47 1014.6
20260831092025 26 261 4.8 11.3 0.00 0.00 0.00 49 1014.6
20260831091523 26 242 6.4 14.5 0.00 0.00 0.00 49 1014.7
20260831091022 26 231 6.4 16.1 0.00 0.00 0.00 51 1014.7
20260831090519 26 274 6.4 17.7 0.00 0.00 0.00 52 1014.7
20260831090018 26 226 6.4 17.7 0.00 0.00 0.00 52 1014.7
20260831085516 25 228 3.2 9.7 0.00 0.00 0.00 56 1014.8
20260831085034 25 210 1.6 6.4 0.00 0.00 0.00 56 1014.8
20260831084532 25 202 4.8 12.9 0.00 0.00 0.00 57 1014.9
20260831084030 25 151 3.2 11.3 0.00 0.00 0.00 58 1014.8
20260831083528 25 165 1.6 6.4 0.00 0.00 0.00 60 1014.9
20260831083026 24 217 3.2 6.4 0.00 0.00 0.00 60 1014.9
20260831082525 24 156 3.2 6.4 0.00 0.00 0.00 62 1015.0
20260831082023 23 187 1.6 11.3 0.00 0.00 0.00 62 1015.0
20260831081521 23 233 1.6 6.4 0.00 0.00 0.00 64 1014.9
20260831081019 23 183 0.0 4.8 0.00 0.00 0.00 64 1014.9
20260831080518 23 180 3.2 4.8 0.00 0.00 0.00 66 1015.0
20260831080048 22 169 3.2 4.8 0.00 0.00 0.00 66 1015.0
20260831080016 22 169 3.2 4.8 0.00 0.00 0.00 66 1015.0
20260831075534 22 128 1.6 3.2 0.00 0.00 0.00 67 1015.0
20260831075032 22 120 0.0 4.8 0.00 0.00 0.00 68 1015.0
20260831074530 22 152 0.0 3.2 0.00 0.00 0.00 69 1015.1
20260831074028 21 165 1.6 6.4 0.00 0.00 0.00 69 1015.1
20260831073526 21 187 0.0 3.2 0.00 0.00 0.00 70 1015.1
20260831073105 21 231 0.0 1.6 0.00 0.00 0.00 70 1015.2
20260831073024 21 231 0.0 1.6 0.00 0.00 0.00 70 1015.2
20260831072523 21 205 0.0 1.6 0.00 0.00 0.00 70 1015.3
20260831072021 20 0.0 0.0 0.00 0.00 0.00 70 1015.3
20260831071519 20 103 0.0 3.2 0.00 0.00 0.00 71 1015.2
20260831071048 20 115 1.6 3.2 0.00 0.00 0.00 72 1015.2
20260831071017 20 115 1.6 3.2 0.00 0.00 0.00 72 1015.2
20260831070535 20 0.0 0.0 0.00 0.00 0.00 73 1015.2
20260831070033 19 0.0 0.0 0.00 0.00 0.00 73 1015.2
20260831065531 19 0.0 0.0 0.00 0.00 0.00 74 1015.2
20260831065030 19 0.0 0.0 0.00 0.00 0.00 74 1015.2
20260831064528 18 160 0.0 1.6 0.00 0.00 0.00 74 1015.2
20260831064026 18 117 0.0 3.2 0.00 0.00 0.00 74 1015.2
20260831063524 18 92 1.6 4.8 0.00 0.00 0.00 75 1015.2
20260831063023 18 102 1.6 4.8 0.00 0.00 0.00 75 1015.2
20260831062521 18 0.0 0.0 0.00 0.00 0.00 76 1015.2
20260831062018 17 0.0 0.0 0.00 0.00 0.00 76 1015.2
20260831061517 17 0.0 0.0 0.00 0.00 0.00 77 1015.3
20260831061035 17 0.0 0.0 0.00 0.00 0.00 77 1015.3
20260831060533 17 0.0 0.0 0.00 0.00 0.00 77 1015.3
20260831060030 17 0.0 0.0 0.00 0.00 0.00 77 1015.3
20260831055528 16 0.0 0.0 0.00 0.00 0.00 77 1015.4
20260831055026 16 0.0 0.0 0.00 0.00 0.00 77 1015.3
20260831054525 16 0.0 0.0 0.00 0.00 0.00 76 1015.4
20260831054022 16 0.0 0.0 0.00 0.00 0.00 76 1015.3
20260831053521 16 0.0 0.0 0.00 0.00 0.00 76 1015.4
20260831053019 16 0.0 0.0 0.00 0.00 0.00 76 1015.3
20260831052517 16 0.0 0.0 0.00 0.00 0.00 76 1015.3
20260831052403 16 0.0 0.0 0.00 0.00 0.00
20260831052035 16 0.0 0.0 0.00 0.00 0.00 76 1015.3
20260831051533 16 0.0 0.0 0.00 0.00 0.00 76 1015.3
20260831051031 16 0.0 0.0 0.00 0.00 0.00 76 1015.4
20260831050529 16 0.0 0.0 0.00 0.00 0.00 76 1015.2
20260831050028 16 0.0 0.0 0.00 0.00 0.00 76 1015.4
20260831045525 15 0.0 0.0 0.00 0.00 0.00 76 1015.4
20260831045023 15 0.0 0.0 0.00 0.00 0.00 76 1015.4
20260831044521 15 0.0 0.0 0.00 0.00 0.00 76 1015.4
20260831044019 15 0.0 0.0 0.00 0.00 0.00 76 1015.4
20260831043518 15 0.0 0.0 0.00 0.00 0.00 76 1015.5
20260831043035 15 0.0 0.0 0.00 0.00 0.00 76 1015.4
20260831042534 15 0.0 0.0 0.00 0.00 0.00 76 1015.4
20260831042032 15 0.0 0.0 0.00 0.00 0.00 76 1015.3
20260831041530 16 0.0 0.0 0.00 0.00 0.00 76 1015.3
20260831041028 16 0.0 0.0 0.00 0.00 0.00 76 1015.3
20260831040526 16 0.0 0.0 0.00 0.00 0.00 76 1015.2
20260831040024 16 0.0 0.0 0.00 0.00 0.00 76 1015.2
20260831035522 16 0.0 0.0 0.00 0.00 0.00 75 1015.1
20260831035020 16 0.0 0.0 0.00 0.00 0.00 76 1015.1
20260831034519 16 0.0 0.0 0.00 0.00 0.00 76 1015.2
20260831034017 16 0.0 0.0 0.00 0.00 0.00 75 1015.2
20260831033534 16 0.0 0.0 0.00 0.00 0.00 75 1015.2
20260831033033 16 0.0 0.0 0.00 0.00 0.00 75 1015.2
20260831032531 16 0.0 0.0 0.00 0.00 0.00 75 1015.1
20260831032131 -17 0.0 0.0 0.00 0.00 0.00
20260831032029 16 0.0 0.0 0.00 0.00 0.00 75 1015.1
20260831031527 16 0.0 0.0 0.00 0.00 0.00 75 1015.2
20260831031025 16 0.0 0.0 0.00 0.00 0.00 74 1015.3
20260831030523 16 0.0 0.0 0.00 0.00 0.00 74 1015.3
20260831030022 16 0.0 0.0 0.00 0.00 0.00 74 1015.3
20260831025519 16 0.0 0.0 0.00 0.00 0.00 74 1015.3
20260831025050 16 0.0 0.0 0.00 0.00 0.00 74 1015.2
20260831025017 16 0.0 0.0 0.00 0.00 0.00 74 1015.2
20260831024516 16 0.0 0.0 0.00 0.00 0.00 74 1015.2
20260831024034 17 0.0 0.0 0.00 0.00 0.00 74 1015.3
20260831023532 17 0.0 0.0 0.00 0.00 0.00 74 1015.4
20260831023030 17 0.0 0.0 0.00 0.00 0.00 73 1015.4
20260831022528 17 0.0 0.0 0.00 0.00 0.00 73 1015.4
20260831022026 17 0.0 0.0 0.00 0.00 0.00 73 1015.4
20260831021524 17 0.0 0.0 0.00 0.00 0.00 73 1015.4
20260831021022 17 0.0 0.0 0.00 0.00 0.00 73 1015.4
20260831020520 17 0.0 0.0 0.00 0.00 0.00 73 1015.4
20260831020018 17 0.0 0.0 0.00 0.00 0.00 73 1015.4
20260831015516 17 0.0 0.0 0.00 0.00 0.00 73 1015.4
20260831015035 17 0.0 0.0 0.00 0.00 0.00 73 1015.5
20260831014533 17 0.0 0.0 0.00 0.00 0.00 73 1015.4
20260831014031 17 0.0 0.0 0.00 0.00 0.00 73 1015.4
20260831013529 17 0.0 0.0 0.00 0.00 0.00 73 1015.4
20260831013027 17 0.0 0.0 0.00 0.00 0.00 73 1015.4
20260831012525 17 0.0 0.0 0.00 0.00 0.00 73 1015.5
20260831012024 17 0.0 0.0 0.00 0.00 0.00 73 1015.4
20260831011521 17 0.0 0.0 0.00 0.00 0.00 73 1015.4
20260831011019 17 0.0 0.0 0.00 0.00 0.00 73 1015.5
20260831010518 17 0.0 0.0 0.00 0.00 0.00 73 1015.5
20260831010048 17 0.0 0.0 0.00 0.00 0.00 72 1015.6
20260831010016 17 0.0 0.0 0.00 0.00 0.00 72 1015.6
20260831005534 17 0.0 0.0 0.00 0.00 0.00 72 1015.6
20260831005033 17 0.0 0.0 0.00 0.00 0.00 72 1015.7
20260831004530 17 0.0 0.0 0.00 0.00 0.00 72 1015.7
20260831004028 17 0.0 0.0 0.00 0.00 0.00 72 1015.7
20260831003526 17 0.0 0.0 0.00 0.00 0.00 72 1015.8
20260831003024 17 0.0 0.0 0.00 0.00 0.00 72 1015.7
20260831002523 17 0.0 0.0 0.00 0.00 0.00 72 1015.8
20260831002021 17 0.0 0.0 0.00 0.00 0.00 72 1015.8
20260831001519 17 0.0 0.0 0.00 0.00 0.00 71 1015.9
20260831001017 17 0.0 0.0 0.00 0.00 0.00 71 1015.9
20260831000535 17 0.0 0.0 0.00 0.00 0.00 71 1015.9
20260831000033 17 0.0 0.0 0.00 0.00 0.00 71 1015.9
20260830235532 17 0.0 0.0 0.00 0.00 0.00 71 1015.9
20260830235030 17 0.0 0.0 0.00 0.00 0.00 71 1016.0
20260830234528 17 0.0 0.0 0.00 0.00 0.00 71 1015.9
20260830234026 17 0.0 0.0 0.00 0.00 0.00 71 1015.9
20260830233524 17 0.0 0.0 0.00 0.00 0.00 71 1016.0
20260830233022 17 0.0 0.0 0.00 0.00 0.00 71 1016.0
20260830232521 17 0.0 0.0 0.00 0.00 0.00 70 1015.9
20260830232018 17 0.0 0.0 0.00 0.00 0.00 70 1015.9
20260830231516 17 0.0 0.0 0.00 0.00 0.00 70 1015.9
20260830231035 18 0.0 0.0 0.00 0.00 0.00 70 1015.9
20260830230533 18 0.0 0.0 0.00 0.00 0.00 70 1015.9
20260830230031 18 0.0 0.0 0.00 0.00 0.00 70 1016.0
20260830225529 18 0.0 0.0 0.00 0.00 0.00 69 1016.0
20260830225027 18 0.0 0.0 0.00 0.00 0.00 69 1015.9
20260830224525 18 0.0 0.0 0.00 0.00 0.00 69 1016.0
20260830224023 18 0.0 0.0 0.00 0.00 0.00 69 1016.0
20260830223521 18 0.0 0.0 0.00 0.00 0.00 68 1015.9
20260830223019 18 0.0 0.0 0.00 0.00 0.00 68 1015.9
20260830222518 18 0.0 0.0 0.00 0.00 0.00 68 1015.9
20260830222016 18 0.0 0.0 0.00 0.00 0.00 68 1015.8
20260830221534 18 0.0 0.0 0.00 0.00 0.00 68 1015.9
20260830221032 18 0.0 0.0 0.00 0.00 0.00 67 1015.9
20260830220529 18 193 0.0 3.2 0.00 0.00 0.00 67 1015.9
20260830220028 19 194 1.6 4.8 0.00 0.00 0.00 67 1016.0
20260830215526 19 189 1.6 4.8 0.00 0.00 0.00 67 1015.9
20260830215056 19 186 3.2 4.8 0.00 0.00 0.00 67 1016.0
20260830215024 19 186 3.2 4.8 0.00 0.00 0.00 67 1016.0
20260830214522 19 186 3.2 4.8 0.00 0.00 0.00 67 1015.9
20260830214021 19 182 3.2 4.8 0.00 0.00 0.00 67 1015.9
20260830213518 19 0.0 0.0 0.00 0.00 0.00 67 1015.9
20260830213047 19 0.0 0.0 0.00 0.00 0.00 67 1015.9
20260830213016 19 0.0 0.0 0.00 0.00 0.00 67 1015.9
20260830212535 19 185 0.0 4.8 0.00 0.00 0.00 67 1015.8
20260830212033 19 192 0.0 3.2 0.00 0.00 0.00 67 1015.9
20260830211531 19 187 1.6 3.2 0.00 0.00 0.00 67 1015.9
20260830211029 19 188 1.6 4.8 0.00 0.00 0.00 67 1015.9
20260830210527 19 192 3.2 6.4 0.00 0.00 0.00 66 1015.8
20260830210025 20 185 3.2 4.8 0.00 0.00 0.00 66 1015.8
20260830205523 20 184 3.2 4.8 0.00 0.00 0.00 66 1015.8
20260830205021 20 184 3.2 6.4 0.00 0.00 0.00 66 1015.7
20260830204519 20 190 3.2 4.8 0.00 0.00 0.00 66 1015.7
20260830204052 20 192 1.6 4.8 0.00 0.00 0.00 66 1015.8
20260830204018 20 192 1.6 4.8 0.00 0.00 0.00 66 1015.8
20260830203516 20 189 3.2 6.4 0.00 0.00 0.00 66 1015.8
20260830203034 20 192 0.0 3.2 0.00 0.00 0.00 65 1015.7
20260830202532 20 199 1.6 3.2 0.00 0.00 0.00 65 1015.7
20260830202030 20 193 1.6 4.8 0.00 0.00 0.00 65 1015.7
20260830201528 20 195 1.6 6.4 0.00 0.00 0.00 65 1015.8
20260830201026 20 183 0.0 4.8 0.00 0.00 0.00 65 1015.7
20260830200524 20 194 0.0 3.2 0.00 0.00 0.00 64 1015.8
20260830200023 20 195 0.0 1.6 0.00 0.00 0.00 64 1015.7
20260830195521 20 196 1.6 3.2 0.00 0.00 0.00 64 1015.8
20260830195019 20 196 0.0 3.2 0.00 0.00 0.00 64 1015.8
20260830194517 20 190 0.0 3.2 0.00 0.00 0.00 64 1015.8
20260830194036 20 0.0 0.0 0.00 0.00 0.00 63 1015.8
20260830193534 20 0.0 0.0 0.00 0.00 0.00 63 1015.8
20260830193031 21 0.0 0.0 0.00 0.00 0.00 63 1015.9
20260830192530 21 0.0 0.0 0.00 0.00 0.00 63 1015.8
20260830192029 21 0.0 0.0 0.00 0.00 0.00 63 1015.7
20260830191526 21 0.0 0.0 0.00 0.00 0.00 63 1015.7
20260830191024 21 0.0 0.0 0.00 0.00 0.00 62 1015.7
20260830190522 21 0.0 0.0 0.00 0.00 0.00 62 1015.8
20260830190020 21 0.0 0.0 0.00 0.00 0.00 62 1015.7
20260830185518 21 183 1.6 3.2 0.00 0.00 0.00 62 1015.7
20260830185016 21 185 1.6 3.2 0.00 0.00 0.00 62 1015.7
20260830184534 21 193 1.6 4.8 0.00 0.00 0.00 61 1015.7
20260830184032 21 190 1.6 4.8 0.00 0.00 0.00 61 1015.7
20260830183531 22 187 3.2 6.4 0.00 0.00 0.00 61 1015.6
20260830183028 22 178 1.6 6.4 0.00 0.00 0.00 60 1015.6
20260830182527 22 0.0 0.0 0.00 0.00 0.00 60 1015.6
20260830182025 22 0.0 0.0 0.00 0.00 0.00 60 1015.6
20260830181523 22 0.0 0.0 0.00 0.00 0.00 59 1015.6
20260830181021 22 0.0 0.0 0.00 0.00 0.00 58 1015.6
20260830180519 22 0.0 0.0 0.00 0.00 0.00 58 1015.5
20260830180017 22 0.0 0.0 0.00 0.00 0.00 58 1015.4
20260830175535 23 0.0 0.0 0.00 0.00 0.00 57 1015.4
20260830175034 23 0.0 0.0 0.00 0.00 0.00 57 1015.4
20260830174532 23 0.0 0.0 0.00 0.00 0.00 57 1015.4
20260830174030 23 0.0 0.0 0.00 0.00 0.00 57 1015.4
20260830173528 23 183 0.0 1.6 0.00 0.00 0.00 56 1015.3
20260830173026 23 190 0.0 1.6 0.00 0.00 0.00 56 1015.2
20260830172524 23 184 3.2 6.4 0.00 0.00 0.00 55 1015.3
20260830172022 23 186 1.6 6.4 0.00 0.00 0.00 55 1015.2
20260830171520 24 197 1.6 4.8 0.00 0.00 0.00 54 1015.2
20260830171018 24 186 3.2 6.4 0.00 0.00 0.00 54 1015.2
20260830170516 24 192 3.2 6.4 0.00 0.00 0.00 53 1015.2
20260830170034 24 185 3.2 9.7 0.00 0.00 0.00 52 1015.2
20260830165532 24 182 3.2 11.3 0.00 0.00 0.00 52 1015.1
20260830165031 25 189 3.2 6.4 0.00 0.00 0.00 51 1015.2
20260830164529 25 198 3.2 6.4 0.00 0.00 0.00 51 1015.2
20260830164027 25 211 1.6 11.3 0.00 0.00 0.00 50 1015.0
20260830163525 25 186 3.2 12.9 0.00 0.00 0.00 50 1015.0
20260830163024 25 216 3.2 11.3 0.00 0.00 0.00 50 1015.0
20260830162521 25 212 3.2 9.7 0.00 0.00 0.00 50 1015.0
20260830162019 25 211 4.8 11.3 0.00 0.00 0.00 49 1015.0
20260830161517 25 202 4.8 12.9 0.00 0.00 0.00 49 1015.0
20260830161036 25 179 6.4 14.5 0.00 0.00 0.00 49 1015.0
20260830160534 25 215 4.8 12.9 0.00 0.00 0.00 49 1015.0
20260830160032 25 216 6.4 16.1 0.00 0.00 0.00 49 1015.0
20260830155530 25 187 4.8 12.9 0.00 0.00 0.00 49 1015.0
20260830155028 25 187 3.2 11.3 0.00 0.00 0.00 48 1015.0
20260830154526 25 190 4.8 9.7 0.00 0.00 0.00 48 1015.0
20260830154024 25 187 4.8 16.1 0.00 0.00 0.00 48 1015.1
20260830153522 25 192 4.8 11.3 0.00 0.00 0.00 47 1015.2
20260830153020 25 188 6.4 17.7 0.00 0.00 0.00 47 1015.2
20260830152518 25 189 4.8 11.3 0.00 0.00 0.00 47 1015.1
20260830152016 25 227 6.4 14.5 0.00 0.00 0.00 47 1015.1
20260830151535 25 222 3.2 9.7 0.00 0.00 0.00 46 1015.1
20260830151033 25 224 4.8 11.3 0.00 0.00 0.00 46 1015.3
20260830150530 25 236 4.8 14.5 0.00 0.00 0.00 46 1015.2
20260830150029 25 207 4.8 12.9 0.00 0.00 0.00 46 1015.3
20260830145527 25 171 6.4 11.3 0.00 0.00 0.00 47 1015.3
20260830145025 25 207 3.2 6.4 0.00 0.00 0.00 46 1015.4
20260830144523 25 230 4.8 9.7 0.00 0.00 0.00 46 1015.3
20260830144021 25 184 3.2 11.3 0.00 0.00 0.00 45 1015.5
20260830143519 26 201 8.0 17.7 0.00 0.00 0.00 44 1015.5
20260830143017 26 199 6.4 16.1 0.00 0.00 0.00 44 1015.5
20260830142535 26 175 6.4 16.1 0.00 0.00 0.00 45 1015.5
20260830142033 26 198 3.2 12.9 0.00 0.00 0.00 45 1015.5
20260830141531 26 245 4.8 12.9 0.00 0.00 0.00 45 1015.4
20260830141029 26 195 3.2 11.3 0.00 0.00 0.00 45 1015.6
20260830140527 26 166 4.8 14.5 0.00 0.00 0.00 45 1015.5
20260830140026 26 165 6.4 12.9 0.00 0.00 0.00 45 1015.5
20260830135523 26 200 6.4 12.9 0.00 0.00 0.00 45 1015.5
20260830135021 26 217 6.4 12.9 0.00 0.00 0.00 46 1015.4
20260830134519 26 287 1.6 4.8 0.00 0.00 0.00 45 1015.5
20260830134016 26 204 4.8 12.9 0.00 0.00 0.00 44 1015.6
20260830133535 26 206 4.8 12.9 0.00 0.00 0.00 45 1015.6
20260830133033 26 179 4.8 12.9 0.00 0.00 0.00 44 1015.6
20260830132531 26 140 4.8 14.5 0.00 0.00 0.00 43 1015.6
20260830132029 26 180 4.8 11.3 0.00 0.00 0.00 44 1015.6
20260830131527 26 176 4.8 14.5 0.00 0.00 0.00 44 1015.7
20260830131025 26 184 6.4 16.1 0.00 0.00 0.00 44 1015.6
20260830130522 26 206 6.4 22.5 0.00 0.00 0.00 44 1015.7
20260830130021 26 222 4.8 12.9 0.00 0.00 0.00 44 1015.7
20260830125519 25 233 1.6 6.4 0.00 0.00 0.00 43 1015.7
20260830125017 25 246 4.8 12.9 0.00 0.00 0.00 42 1015.8
20260830124535 26 242 4.8 14.5 0.00 0.00 0.00 42 1015.8
20260830124033 26 229 6.4 14.5 0.00 0.00 0.00 42 1015.9
20260830123531 26 234 8.0 20.9 0.00 0.00 0.00 43 1015.9
20260830123029 26 232 6.4 14.5 0.00 0.00 0.00 43 1015.9
20260830122527 26 281 4.8 12.9 0.00 0.00 0.00 42 1016.1
20260830122025 26 257 3.2 11.3 0.00 0.00 0.00 42 1016.1
20260830121523 26 252 3.2 12.9 0.00 0.00 0.00 43 1016.0
20260830121022 26 245 6.4 16.1 0.00 0.00 0.00 42 1016.1
20260830120520 26 269 6.4 17.7 0.00 0.00 0.00 41 1016.1
20260830120018 26 279 6.4 14.5 0.00 0.00 0.00 42 1016.2
20260830115516 25 246 6.4 14.5 0.00 0.00 0.00 43 1016.2
20260830115034 25 230 4.8 6.4 0.00 0.00 0.00 44 1016.2
20260830114532 25 217 4.8 11.3 0.00 0.00 0.00 43 1016.3
20260830114030 25 268 8.0 16.1 0.00 0.00 0.00 42 1016.3
20260830113528 25 265 6.4 20.9 0.00 0.00 0.00 45 1016.3
20260830113026 25 172 4.8 11.3 0.00 0.00 0.00 45 1016.4
20260830112525 25 199 4.8 16.1 0.00 0.00 0.00 44 1016.5
20260830112023 25 205 6.4 17.7 0.00 0.00 0.00 45 1016.5
20260830111521 25 201 4.8 14.5 0.00 0.00 0.00 44 1016.5
20260830111018 25 222 6.4 20.9 0.00 0.00 0.00 44 1016.6
20260830110516 25 196 6.4 16.1 0.00 0.00 0.00 45 1016.6
20260830110035 25 277 1.6 6.4 0.00 0.00 0.00 46 1016.6
20260830105533 25 255 3.2 6.4 0.00 0.00 0.00 46 1016.7
20260830105031 25 246 3.2 11.3 0.00 0.00 0.00 46 1016.8
20260830104529 24 207 4.8 12.9 0.00 0.00 0.00 45 1016.7
20260830104027 24 228 4.8 11.3 0.00 0.00 0.00 47 1016.8